STARLINK-11426, 62058

Orbit data source: Space-Track

STARLINK-11426, 62058 is a payload satellite owned by SpaceX/Seattle (US) in LEO that was launched on Sun, 24 Nov 2024 UTC via an FALCON 9 launch vehicle from the Air Force Western Test Range (AFWTR). Payload-class satellites include a variety of spacecraft equipped with specific instruments for various scientific and technological missions. These include communications satellites like Starlink; space stations such as the ISS; scientific satellites like the Hubble; Earth observation satellites from companies like Planet Labs, Umbra, and HawkEye 360; GPS; miniature CubeSats for education and research; and military/defense satellites.

Loading next visibility...
Identifier
62058, 2024-217B
Orbit
LEO
Country
Flag of USUS
Related business
Manufacturer
SpaceX/Seattle
Mission
Operational Commercial Communications
Bus & Motor
STARLINK V2MD, Unknown motor
Mass
960 kg wet, ~910 kg dry
Launch date (UTC)
2024-11-24 (1 year ago)
Launch vehicle
FALCON 9
Launch site
Air Force Western Test Range (AFWTR)
Object type
Payload
Rocket body
Debris
Shape & HBR
Box + 2 Pan, 18.1 m
Radar Cross Section
36.964 m², Large (>1 m²)

Expand to show TLE details & history
Last TLE update: 5 hours ago

TLE from 5 hours ago
0 STARLINK-11426
1 62058U 24217B   26095.53601922  .00228204  00000-0  18307-2 0  9996
2 62058  53.1571 298.6503 0000567 118.9478 241.1597 15.69793528 79330
Epoch: 2026-04-05T12:51Z
TLE epoch observation values (Epoch: 2026-04-05T12:51:52.060Z)
Latitude
-0.00001°
Longitude
-88.15666°
Altitude
360.587 km
Speed
7.694 km/s
True Right ascension
19h 54m 36s
True Declination
0° 00' 00"
Sunlit
Object was in daylight at epoch
Visualization orbit readout
Latitude
Unknown
Longitude
Unknown
Altitude
Unknown
Speed
Unknown
Apparent Right ascension
Unknown
Apparent Declination
Unknown
Sunlit
N/A
Visualization observer readout
Local Sidereal Time
00:14:55
Azimuth
Unknown
Elevation
Unknown
Doppler factor
Unknown
Orbital elements
Apogee altitude
360.131 km
Perigee altitude
359.367 km
Semi-major axis
6,737.886 km
Eccentricity
0.00006
Inclination
53.1571°
RAAN
298.6503°
Arg. of periapsis
118.9478°
True anomaly
241.15401°
Mean anomaly
241.1597°
Eccentric anomaly
241.15685°
Mean motion
3.92426 °/min
Orbital period
91.74 mins
BSTAR
0.0018307
Loading maneuver chart data...
Computing Atmospheric mass density...
Loading historical data...
Loading historical data...
Loading historical data...
Loading historical data...
Loading historical data...
Loading historical data...
Loading historical data...

Documentation

Showing up to 5 results
|